Wetterdaten: aktuell Montag, 31.08.2026 06:17
Datum Zeit Temp. A. Feuchte A. Luftdruck Regen Wind Richtung Richtung Taupunkt Windchill
31.08.2026 06:17 18,0 °C 81 % 1006,1 hPa 0,0 l/m² 0,0 km/h (0 Bft) O-SO 110 ° 14,7 °C 18,0 °C
31.08.2026 06:14 18,0 °C 81 % 1006,1 hPa 0,0 l/m² 0,1 km/h (0 Bft) O-SO 110 ° 14,7 °C 18,0 °C
31.08.2026 06:12 18,0 °C 81 % 1006,1 hPa 0,0 l/m² 0,1 km/h (0 Bft) O-SO 110 ° 14,7 °C 18,0 °C
31.08.2026 06:10 18,0 °C 80 % 1006,1 hPa 0,0 l/m² 0,2 km/h (0 Bft) O-SO 105 ° 14,5 °C 18,0 °C
31.08.2026 06:08 18,0 °C 80 % 1006,1 hPa 0,0 l/m² 0,0 km/h (0 Bft) O 100 ° 14,5 °C 18,0 °C
31.08.2026 06:06 18,0 °C 80 % 1006,1 hPa 0,4 l/m² 0,0 km/h (0 Bft) O 100 ° 14,5 °C 18,0 °C
31.08.2026 06:04 18,0 °C 80 % 1006,1 hPa 0,0 l/m² 0,0 km/h (0 Bft) O 100 ° 14,5 °C 18,0 °C
31.08.2026 06:03 18,0 °C 80 % 1006,1 hPa 0,4 l/m² 0,0 km/h (0 Bft) O 100 ° 14,5 °C 18,0 °C
31.08.2026 06:01 18,0 °C 80 % 1006,1 hPa 0,0 l/m² 0,0 km/h (0 Bft) O 100 ° 14,5 °C 18,0 °C
31.08.2026 05:59 18,0 °C 80 % 1006,1 hPa 0,0 l/m² 0,0 km/h (0 Bft) O 100 ° 14,5 °C 18,0 °C
31.08.2026 05:57 18,0 °C 80 % 1006,1 hPa 0,4 l/m² 0,0 km/h (0 Bft) O 100 ° 14,5 °C 18,0 °C
31.08.2026 05:55 18,0 °C 80 % 1006,1 hPa 0,0 l/m² 0,1 km/h (0 Bft) O 100 ° 14,5 °C 18,0 °C
31.08.2026 05:53 18,0 °C 79 % 1006,1 hPa 0,0 l/m² 0,4 km/h (0 Bft) O 100 ° 14,3 °C 18,0 °C
31.08.2026 05:51 18,0 °C 79 % 1006,1 hPa 0,0 l/m² 0,4 km/h (0 Bft) O 100 ° 14,3 °C 18,0 °C
31.08.2026 05:49 18,0 °C 79 % 1006,1 hPa 0,0 l/m² 0,0 km/h (0 Bft) O 100 ° 14,3 °C 18,0 °C
31.08.2026 05:47 18,1 °C 79 % 1006,1 hPa 0,0 l/m² 0,1 km/h (0 Bft) O 100 ° 14,4 °C 18,1 °C
31.08.2026 05:45 18,1 °C 79 % 1006,1 hPa 0,0 l/m² 0,1 km/h (0 Bft) O 100 ° 14,4 °C 18,1 °C
31.08.2026 05:43 18,1 °C 79 % 1006,1 hPa 0,0 l/m² 3,0 km/h (1 Bft) O-SO±22.5° 115 ° 14,4 °C 18,1 °C
31.08.2026 05:41 18,1 °C 79 % 1006,1 hPa 0,0 l/m² 0,3 km/h (0 Bft) SO 125 ° 14,4 °C 18,1 °C
31.08.2026 05:39 18,1 °C 78 % 1006,1 hPa 0,0 l/m² 3,0 km/h (1 Bft) SO 125 ° 14,2 °C 18,1 °C
31.08.2026 05:37 18,1 °C 78 % 1006,1 hPa 0,0 l/m² 3,0 km/h (1 Bft) SO 125 ° 14,2 °C 18,1 °C
31.08.2026 05:34 18,1 °C 78 % 1006,1 hPa 0,0 l/m² 3,0 km/h (1 Bft) SO 125 ° 14,2 °C 18,1 °C
31.08.2026 05:32 18,1 °C 78 % 1006,1 hPa 0,0 l/m² 3,1 km/h (1 Bft) SO 125 ° 14,2 °C 18,1 °C
31.08.2026 05:30 18,1 °C 78 % 1006,1 hPa 0,0 l/m² 0,2 km/h (0 Bft) SO 125 ° 14,2 °C 18,1 °C
31.08.2026 05:28 18,1 °C 78 % 1006,1 hPa 0,0 l/m² 0,2 km/h (0 Bft) SO 125 ° 14,2 °C 18,1 °C
31.08.2026 05:26 18,1 °C 78 % 1006,1 hPa 0,0 l/m² 0,3 km/h (0 Bft) SO 125 ° 14,2 °C 18,1 °C
31.08.2026 05:24 18,1 °C 78 % 1006,1 hPa 0,0 l/m² 0,1 km/h (0 Bft) SO 125 ° 14,2 °C 18,1 °C
31.08.2026 05:22 18,2 °C 77 % 1006,1 hPa 0,0 l/m² 0,1 km/h (0 Bft) SO 125 ° 14,1 °C 18,2 °C
31.08.2026 05:20 18,2 °C 77 % 1006,1 hPa 0,0 l/m² 0,6 km/h (0 Bft) SO 125 ° 14,1 °C 18,2 °C
31.08.2026 05:19 18,2 °C 77 % 1006,1 hPa 0,0 l/m² 0,4 km/h (0 Bft) SO 125 ° 14,1 °C 18,2 °C
31.08.2026 05:17 18,2 °C 77 % 1006,1 hPa 0,0 l/m² 0,1 km/h (0 Bft) SO 125 ° 14,1 °C 18,2 °C
31.08.2026 05:15 18,2 °C 76 % 1006,1 hPa 0,0 l/m² 0,1 km/h (0 Bft) SO 125 ° 13,9 °C 18,2 °C
31.08.2026 05:13 18,2 °C 76 % 1006,1 hPa 0,0 l/m² 0,0 km/h (0 Bft) SO 125 ° 13,9 °C 18,2 °C
31.08.2026 05:11 18,3 °C 76 % 1006,1 hPa 0,0 l/m² 0,1 km/h (0 Bft) SO 125 ° 14,0 °C 18,3 °C
31.08.2026 05:09 18,3 °C 76 % 1006,1 hPa 0,0 l/m² 0,1 km/h (0 Bft) SO 125 ° 14,0 °C 18,3 °C
31.08.2026 05:07 18,3 °C 76 % 1006,1 hPa 0,0 l/m² 0,2 km/h (0 Bft) SO 125 ° 14,0 °C 18,3 °C
31.08.2026 05:05 18,3 °C 76 % 1006,1 hPa 0,0 l/m² 0,3 km/h (0 Bft) SO 125 ° 14,0 °C 18,3 °C
31.08.2026 05:03 18,3 °C 76 % 1006,1 hPa 0,0 l/m² 4,3 km/h (1 Bft) SO 125 ° 14,0 °C 18,3 °C
31.08.2026 05:01 18,3 °C 76 % 1006,1 hPa 0,0 l/m² 4,3 km/h (1 Bft) SO 125 ° 14,0 °C 18,3 °C
31.08.2026 04:59 18,3 °C 76 % 1006,1 hPa 0,0 l/m² 5,7 km/h (1 Bft) SO 125 ° 14,0 °C 18,3 °C
31.08.2026 04:57 18,3 °C 76 % 1006,1 hPa 0,0 l/m² 3,3 km/h (1 Bft) SO 130 ° 14,0 °C 18,3 °C
_ Min-Zeit 05:49 00:01 00:47 - 00:01 - - 00:15 05:49
Minimum _ 18,0 °C 43 % 1005,0 hPa - 0,0 km/h (0 Bft) - - 7,7 °C 18,0 °C
_ Max-Zeit 00:01 06:12 05:49 04:02 04:59 - - 06:12 00:01
Maximum _ 21,0 °C 81 % 1006,1 hPa 1,8 l/m² 5,7 km/h
SO (1 Bft)
- - 14,7 °C 21,0 °C
Durchschnitt _ 19,2 °C 63 % 1005,8 hPa #9,4 l/m² 0,4 km/h (0 Bft) SO - 11,6 °C 19,2 °C